レナード彗星

P/2018 VN2 ( Leonard )

English version
Home page
Updated on June 15, 2021

---------------------------------------------------------------------

・ プロフィール

発見日 2018年11月5日
発見光度 19.0等
発見者 G. J. Leonard (Mount Lemmon)

・ 写真集

・ 軌道要素

Epoch 2018 June 11.0 TT = JDT 2458280.5                                         
T 2018 June 5.37755 TT                                  Rudenko                 
q   2.1226265            (2000.0)            P               Q                  
n   0.12035419     Peri.  138.77475     +0.97164604     -0.06534318             
a   4.0628293      Node   226.54882     +0.02396643     +0.98332235             
e   0.4775497      Incl.   18.24062     +0.23522242     +0.16972752             
P   8.19                                                                        
From 109 observations 2018 July 2-Dec. 13, mean residual 0".7.                  

・ 光度変化

        m1 = 14.5 + 5 logΔ + 10.0 log r

---------------------------------------------------------------------

軌道要素はM.P.E.C. 2021-L04に掲載されたものです。
光度グラフはComet for Windowsで作成したものです。

---------------------------------------------------------------------

Copyright(C) Seiichi Yoshida (comet@aerith.net). All rights reserved.